270  
ASUS46 KPDT 180025  
RWRPDT  
PENDLETON REGIONAL WEATHER ROUNDUP  
NATIONAL WEATHER SERVICE PENDLETON OREGON  
500 PM PDT WED OCT 17 2018  
 
NOTE: FAIR INDICATES FEW OR NO CLOUDS BELOW 12,000 FEET WITH NO  
SIGNIFICANT WEATHER AND/OR S TO VISIBILITY
.  
 
# INDICATES UNOFFICIAL STATION AND DATA  
 
WAZ520-180110-  
EAST SLOPES OF WASHINGTON CASCADES  
 
CITY SKY/WX TMP DP RH WIND PRES REMARKS
 
#BULLFROG N/A 61 34 36 E1 N/A  
#CLE ELUM HS N/A 61 32 33 E5 30.11S  
#EASTON DOT N/A N/A N/A N/A CALM N/A  
#ELK HTS DOT N/A 59 59 100 E3 N/A  
#GLENWOOD N/A 66 38 36 N1 30.19  
#NELSON 3SW N/A 45 40 82 CALM 30.41S  
#NILE N/A 61 32 33 S2 29.51  
#TEANAWAY 4NE N/A 64 36 35 W2 N/A  
#TROUT LAKE 1NE N/A 65 37 35 CALM 30.18F  
#TROUT LAKE 1E N/A 65 36 34 CALM 30.20  

 
 
WAZ521-180110-  
SIMCOE HIGHLANDS  
 
CITY SKY/WX TMP DP RH WIND PRES REMARKS
 
#BICKLETON HS N/A 58 36 44 CALM 29.84F  
#SATUS PASS DOT N/A 58 25 28 S2 N/A  
#CENTERVILLE 1SWN/A 60 36 41 CALM 30.17R  
#GOLDENDALE 4W N/A 64 15 15 CALM 30.20S  
#GOODNOE HILLS N/A 63 34 34 E8 30.10S  
#LYLE 6NE N/A 65 36 34 E2 30.18S  
#PITT 4SE N/A 61 32 33 CALM 30.21  

 
 
WAZ026-180110-  
KITTITAS VALLEY  
 
CITY SKY/WX TMP DP RH WIND PRES REMARKS
 
ELLENSBURG AP CLEAR 67 34 29 E6 30.18  
6HR MIN TEMP: 50; 6HR MAX TEMP: 68;  
 
#ELLENSBURG CWU N/A 65 36 34 E2 30.13F  
#ELLENSBURG 3NE N/A 63 41 44 CALM 28.26F  
#ELLENSBURG 1E N/A 63 38 39 CALM 30.26F  
#KITTITAS 3S N/A 63 42 46 NE2 30.19S  
#MANASTASH RDG N/A 58 58 100 CALM N/A  
#ROCKY CYN DOT N/A 62 35 36 SE2 N/A  
#RYEGRASS DOT N/A 58 32 37 CALM N/A  
#THORP 6N N/A 61 37 41 CALM 30.19S  

 
 
WAZ027-180110-  
YAKIMA VALLEY  
 
CITY SKY/WX TMP DP RH WIND PRES REMARKS
 
SUNNYSIDE AP HAZE 64 41 43 E6 30.18F VSB 1/2  
YAKIMA AIRPORT CLEAR 67 31 26 S3 30.18  
6HR MIN TEMP: 54; 6HR MAX TEMP: 68;  
 
YAKIMA-VAGABOND N/A 66 32 28 S7 30.16  
#GRANDVIEW N/A 63 37 38 CALM 30.20F  
#MABTON N/A 65 42 43 CALM 30.17F  
#MOXEE 2E N/A 64 N/A N/A S7 30.07F  
#NACHES 2SW N/A 66 38 36 CALM 30.20S  
#OUTLOOK DOT N/A 65 34 31 CALM 30.15S  
#PARKER DOT N/A 68 31 25 NW2 30.17F  
#TERRACE HTS N/A 67 36 32 S1 30.15S  
#TOPPENISH N/A 66 39 37 CALM 30.10F  
#I82 S UMTANUM RN/A 64 32 30 SW5 N/A  
#UNION GAP DOT N/A 66 33 29 CALM 30.20F  
#W YAKIMA N/A 66 36 33 S2 30.18F  
#ZILLAH DOT N/A 65 33 30 E3 N/A  

 
 
WAZ028-180110-  
LOWER COLUMBIA BASIN...WASHINGTON  
 
CITY SKY/WX TMP DP RH WIND PRES REMARKS
 
HANFORD MOCLEAR 66 34 30 N3 30.17  
PASCO CLEAR 62 39 43 CALM 30.20  
6HR MIN TEMP: 50; 6HR MAX TEMP: 64;  
 
PROSSER AWOS N/A 63 39 41 E7 30.21S  
RICHLAND AWOS CLEAR 63 38 39 E5 30.19F  
#BASIN CITY 5SW N/A 64 46 52 CALM 30.18F  
#BENTON CITY N/A 60 40 47 CALM 30.10S  
#CONNELL 5N N/A 64 39 40 W1 30.19F  
#CONNELL 5NW N/A 62 33 34 CALM 30.15S  
#ELTOPIA 6NW N/A 68 42 39 CALM 29.15F  
#KAHLOTUS N/A 65 35 33 W3 30.20S  
#KENNEWICK 3S N/A 61 41 48 CALM 30.20F  
#PROSSER DOT N/A 64 37 37 CALM 30.19F  
#SAGEMOOR 2W N/A 62 43 50 CALM 30.06F  
#TOUCHET 2S N/A 60 43 53 CALM 30.19S  

 
 
WAZ029-180110-  
FOOTHILLS OF THE BLUES...WASHINGTON  
 
CITY SKY/WX TMP DP RH WIND PRES REMARKS
 
WALLA WALLA AP CLEAR 61 35 38 W3 30.19  
6HR MIN TEMP: 53; 6HR MAX TEMP: 62;  
 
#CLYDE 6NW N/A 62 37 39 W3 30.19F  
#DELANEY DOT N/A 66 33 29 NW1 30.19S  
#LOWDEN 2SE N/A 61 42 50 SW1 30.16S  
#PLEASANT VIEW 1N/A 61 33 35 SW1 30.22S  
#PRESCOTT N/A 62 38 41 CALM 30.19  
#WHITMAN COLLEGEN/A 61 39 44 CALM 30.24S  
#WAITSBURG 6SSE N/A 57 36 45 CALM 30.03S  
#WALLA WALLA 5E N/A 61 39 44 W2 N/A  
#WALLA WALLA U N/A 62 40 44 CALM 30.20  
#WHITMAN MISSIONN/A 62 42 48 SW1 30.22S  

 
 
WAZ030-180110-  
BLUE MOUNTAINS...WASHINGTON  
 
CITY SKY/WX TMP DP RH WIND PRES REMARKS
 
#DIXIE 5SE N/A 56 34 43 W1 30.12F  

 
 
ORZ009-041-WAZ024-180110-  
COLUMBIA RIVER GORGE  
 
CITY SKY/WX TMP DP RH WIND PRES REMARKS
 
HOOD RIVER AP CLEAR 66 32 28 SE3 30.15F  
THE DALLES AP CLEAR 69 34 27 NE9 30.16  
6HR MIN TEMP: 50; 6HR MAX TEMP: 71;  
 
#CELILO DOT N/A 65 35 33 E2 N/A  
#LYLE N/A 69 39 33 S1 30.16  
#MARYHILL N/A 64 31 29 N10 30.03  
#MURDOCK N/A 70 38 31 NE2 30.11S  
#RUFUS DOT N/A 65 40 40 NE8 N/A  
#SMITHVILLE N/A 69 37 31 N3 30.15  
 

 
 
ORZ510-180110-  
NORTH CENTRAL OREGON  
 
CITY SKY/WX TMP DP RH WIND PRES REMARKS
 
#ANTELOPE N/A 63 35 35 NE5 30.04F  
#COW CYN RST AREN/A 63 29 28 N8 N/A  
#DUFUR N/A 65 34 31 NE1 30.15S  
#DUFUR 9E N/A 60 32 35 E10 30.22S  
#GRASS VALLEY 1SN/A 61 35 38 E7 30.19F  
#KENT DOT N/A 63 28 26 N7 N/A  
#SHANIKO 5WSW N/A 60 28 29 NE8 N/A  
#WAPANITIA AIRPON/A 65 32 29 CALM 30.20S  
#WASCO DOT N/A 64 34 33 E10 N/A  
#WASCO 5NE N/A 61 36 39 E6 30.19S  

 
 
ORZ511-180110-  
CENTRAL OREGON  
 
CITY SKY/WX TMP DP RH WIND PRES REMARKS
 
BEND AIRPORT CLEAR 68 28 22 N8 30.16S  
MADRAS AIRPORT CLEAR 63 32 31 N6 30.19S  
PRINEVILLE AP CLEAR 68 27 21 N3 30.15F  
REDMOND AIRPORT CLEAR 66 31 27 N12 30.16  
6HR MIN TEMP: 54; 6HR MAX TEMP: 70;  
 
#ASHWOOD SCHOOL N/A 65 28 25 E6 30.11S  
#BEND 1SW N/A 63 30 29 CALM N/A  
#BEND-AWBREY N/A 66 33 29 N3 30.14F  
#BEND-KIM LN N/A 66 32 28 N3 30.12S  
#CULVER N/A 62 33 34 CALM 29.86S  
#CULVER 8W N/A 62 26 25 CALM 30.16R  
#LAKE BILLY CHINN/A 62 N/A N/A N2 30.18F  
#POWELL BUTTE N/A 66 31 27 CALM 30.10S  
#PRINEVILLE N/A 70 32 24 CALM 30.23S  
#WARM SPRINGS N/A 68 35 29 CALM 30.00S  
 

 
 
 
ORZ509-180110-  
EAST SLOPES OF OREGON CASCADES  
 
CITY SKY/WX TMP DP RH WIND PRES REMARKS
 
SISTERS AWOS N/A 64 28 25 N6 30.13  
#BLUE BOX PASS N/A 57 N/A N/A N8 N/A  
#CAMP SHERMAN N/A 61 35 38 CALM 30.24S  
#LA PINE 4NW N/A 68 34 28 CALM 30.19S  
#LAVA BUTTE DOT N/A 63 27 25 NW1 N/A  
#SISTERS ODOT N/A 66 25 21 SE2 N/A  
#SISTERS 3N N/A 60 27 28 NE3 30.17S  
#SUNRIVER N/A 66 31 27 N1 30.18S  
#TUMALO 3W N/A 64 29 27 N3 30.00S  
#WANOGA BUTTE D N/A 57 25 29 SE2 N/A  
 

 
 
ORZ044-180110-  
LOWER COLUMBIA BASIN...OREGON  
 
CITY SKY/WX TMP DP RH WIND PRES REMARKS
 
HERMISTON CLEAR 64 39 40 NE5 30.18  
6HR MIN TEMP: 51; 6HR MAX TEMP: 66;  
 
#BOARDMAN SCHOOLN/A 62 43 50 N1 30.16F  
#BOARDMAN 8SW N/A 62 43 50 N1 30.19S  
#ECHO 8SW N/A 63 38 39 CALM 30.19S  
#I-84 EX 198 DOTN/A 63 35 35 CALM N/A  
#IONE SCHOOL N/A 62 36 38 N1 30.20F  
#UMATILLA N/A 64 39 40 CALM 30.11  

 
 
ORZ507-180110-  
NORTHERN FOOTHILLS OF THE BLUES  
 
CITY SKY/WX TMP DP RH WIND PRES REMARKS
 
PENDLETON AIRPT CLEAR 63 32 31 NW3 30.18  
6HR MIN TEMP: 54; 6HR MAX TEMP: 64;  
 
#ADAMS 3WNW N/A 60 39 46 NE2 30.19S  
#ATHENA N/A 57 36 45 CALM 30.24F  
#CAYUSE N/A 61 39 44 N2 30.18S  
#HELIX SCHOOL N/A 58 36 44 N2 30.21F  
#HELIX 3N N/A 57 36 45 N2 30.19F  
#HOLDMAN 6E N/A 58 37 45 N2 29.99F  
#M-FREEWATER 5SEN/A 61 42 50 CALM 30.18  
#PENDLETON DNTN N/A 65 34 31 CALM 30.16S  
#PDT AQUATIC CTRN/A 64 36 35 CALM 30.12S  
#PDT SUNRIDGE N/A 64 37 37 CALM 30.19S  
#PENDLETON 6SE N/A 66 39 37 CALM 30.15F  
#PENDLETON 7NW N/A 60 39 46 CALM 32.47S  
#TUTUILLA N/A 60 36 41 CALM 30.23F  
#UMAPINE 2E N/A 64 42 45 CALM 30.17S  
#WESTON SCHOOL N/A 56 34 43 E1 30.00  
 

 
 
ORZ508-180110-  
SOUTHERN FOOTHILLS OF THE BLUES  
 
CITY SKY/WX TMP DP RH WIND PRES REMARKS
 
#AJAX N/A 59 27 29 CALM 30.32  
#CONDON 5W N/A 58 35 42 CALM 30.16  
#HEPPNER EOC N/A 59 37 44 W7 30.11S  
#HEPPNER 4NE N/A 56 37 49 NE5 30.18S  
#LEXINGTON 2SE N/A 63 38 39 N1 30.15S  
#OLEX 4N N/A 62 37 39 E7 30.16F  
#RUGGS 5NE N/A 62 35 36 CALM 30.36  
#RUGGS 2SW N/A 58 36 44 N3 30.20F  
 

 
 
ORZ502-503-180110-  
BLUE MOUNTAINS  
 
CITY SKY/WX TMP DP RH WIND PRES REMARKS
 
MEACHAM CLEAR 58 35 42 CALM 30.21  
6HR MIN TEMP: 58; 6HR MAX TEMP: 65;  
 
#BATTLE MTN DOT N/A 54 32 43 N1 N/A  
#GRANITE N/A 63 23 21 CALM 29.85S  
#HARDMAN 10S N/A 58 36 44 CALM 30.27F  
#HEPPNER 15SE N/A 54 39 57 CALM 25.71S  
#LADD CYN SMT N/A 64 28 25 SE7 N/A  
#LADD CREEK ODOTN/A 59 35 40 NE6 N/A  
#N POWDER DOT N/A 67 33 28 CALM N/A  
#SUMMERVILLE 5NWN/A 53 39 59 CALM 26.84F  
#TOLLGATE N/A 56 38 51 CALM 30.25F  
#TROY SCHOOL N/A 66 35 32 CALM 30.00F  
#UKIAH N/A 61 35 38 NW6 30.14S  
#WESTON 4E N/A 55 38 53 CALM 30.15F  

 
 
ORZ505-180110-  
JOHN DAY BASIN  
 
CITY SKY/WX TMP DP RH WIND PRES REMARKS
 
JOHN DAY CLEAR 69 32 25 CALM 30.17F  
#MITCHELL 8NW N/A 62 31 31 CALM 30.17F  
#MONUMENT HS N/A 71 31 23 CALM 30.07F  

 
 
ORZ506-180110-  
OCHOCO AND JOHN DAY HIGHLANDS  
 
CITY SKY/WX TMP DP RH WIND PRES REMARKS
 
#HORSE RIDGE DO N/A 67 22 18 N9 N/A  
#IZEE 6NW N/A 60 31 33 CALM N/A  
#PAULINA ODOT N/A 67 23 19 N1 N/A  
#PRAIRIE CITY N/A 74 30 20 CALM 30.30F  
#SENECA 9NW N/A 63 28 26 CALM 30.21S  

 
 
ORZ049-180110-  
GRANDE RONDE VALLEY  
 
CITY SKY/WX TMP DP RH WIND PRES REMARKS
 
LA GRANDE CLEAR 61 36 39 SW3 30.19S HAZE  
#COVE SCHOOL N/A 63 40 43 CALM 30.18F  
#COVE 6NW N/A 63 40 43 CALM 30.21S  
#ELGIN 3N N/A 64 33 31 CALM 30.14S  
#ELGIN 1E N/A 67 35 30 CALM N/A  
#IMBLER SCHOOL N/A 65 35 33 CALM 30.14S  
#ISLAND CITY 4N N/A 76 41 28 CALM 30.07S  
#LADD CYN DOT N/A 63 38 39 W2 N/A  
#UNION 1S N/A 61 38 42 CALM 30.21F  

 
 
ORZ050-180110-  
WALLOWA COUNTY  
 
CITY SKY/WX TMP DP RH WIND PRES REMARKS
 
#ENTERPRISE HS N/A 66 37 34 CALM 30.09F  
#IMNAHA SCHOOL N/A 61 36 39 N2 30.16S  
#JOSEPH N/A 61 34 36 CALM 30.40F  
#JOSEPH 3N N/A 63 29 28 CALM 30.23  
#JOSEPH 3W N/A 52 38 59 SW3 30.06S  
#LOSTINE N/A 62 39 43 CALM 30.02S  
#LOSTINE 3SE N/A 60 34 37 NW3 30.28S  
#MT HOWARD 8000 N/A 46 27 47 CALM 30.37  
#PROMISE 1S N/A 66 38 36 CALM 30.26R  
#WALLOWA LAKE N/A 48 38 68 E1 30.27S  
#WALLOWA SCHOOL N/A 68 38 33 CALM 30.14S  
 

 
 
CLICK HERE TO GO TO PREVIOUS BULLETINS.

The Nexlab OR Page
The Nexlab WA Page Main Text Page